Location: Arlington
(40.6323°N, 74.1651°W)
Time: 03:05:51
(UTC+00:00)

SKYMED 2 - Pass Details

Date: 22 November 2019
Orbit: 621 x 623 km, 97.9° (Epoch: 05 December)

Event Time Altitude Azimuth Distance (km) Brightness Sun altitude
Exits shadow 22:32:20 - 22° (NNE) 2,600 6.4 -11.1°
Reaches altitude 10° 22:33:53 10° 28° (NNE) 1,998 5.8 -11.4°
Maximum altitude 22:37:58 39° 98° (E) 939 4.0 -12.1°
Drops below altitude 10° 22:42:00 10° 168° (SSE) 1,983 6.2 -12.9°
Sets 22:44:18 0° 176° (S) 2,885 7.1 -13.3°
